WB9TLH-11 Weather Reports


Display with metric or nautical units.
time (UTC)temp
F
wind
direction
speed
MPH
gust
MPH
rain 1hr
in
rain 24hr
in
rain mn
in
humidity
%
barometer
mb
20260504012056 60 146 2.0 9.0 0.00 0.00 0.00 46 1012.2
20260504011556 60 180 3.0 11.0 0.00 0.00 0.00 45 1012.1
20260504011056 60 140 3.0 9.0 0.00 0.00 0.00 45 1011.8
20260504010556 60 149 3.0 7.0 0.00 0.00 0.00 45 1011.9
20260504010056 60 188 3.0 7.0 0.00 0.00 0.00 45 1012.0
20260504005556 60 156 3.0 7.0 0.00 0.00 0.00 45 1012.0
20260504005056 60 161 2.0 10.0 0.00 0.00 0.00 45 1012.1
20260504004556 60 163 2.0 5.0 0.00 0.00 0.00 45 1012.3
20260504004056 60 168 2.0 7.0 0.00 0.00 0.00 46 1012.4
20260504003556 61 184 1.0 5.0 0.00 0.00 0.00 45 1012.6
20260504003056 61 123 1.0 4.0 0.00 0.00 0.00 44 1012.9
20260504002556 61 123 0.0 2.0 0.00 0.00 0.00 45 1013.2
20260504002056 61 123 0.0 0.0 0.00 0.00 0.00 44 1013.3
20260504001556 61 123 0.0 1.0 0.00 0.00 0.00 43 1013.2
20260504001056 61 123 0.0 3.0 0.00 0.00 0.00 43 1013.2
20260504000556 61 123 0.0 2.0 0.00 0.00 0.00 43 1013.3
20260504000056 61 123 0.0 2.0 0.00 0.00 0.00 43 1013.2
20260503235556 62 123 1.0 4.0 0.00 0.00 0.00 43 1013.2
20260503235056 62 123 1.0 3.0 0.00 0.00 0.00 42 1013.3
20260503234556 62 123 0.0 4.0 0.00 0.00 0.00 42 1013.4
20260503234056 62 123 0.0 1.0 0.00 0.00 0.00 42 1013.6
20260503233556 62 123 0.0 1.0 0.00 0.00 0.00 41 1013.6
20260503233056 62 123 0.0 0.0 0.00 0.00 0.00 44 1013.5
20260503232556 62 123 1.0 0.0 0.00 0.00 0.00 42 1013.5
20260503232056 62 123 2.0 6.0 0.00 0.00 0.00 41 1013.3
20260503231556 62 144 2.0 8.0 0.00 0.00 0.00 40 1012.8
20260503231056 62 173 2.0 7.0 0.00 0.00 0.00 41 1012.8
20260503230556 62 190 1.0 4.0 0.00 0.00 0.00 40 1012.9
20260503230056 62 190 2.0 5.0 0.00 0.00 0.00 41 1013.0
20260503225556 62 184 1.0 11.0 0.00 0.00 0.00 40 1013.1
20260503225056 62 219 2.0 9.0 0.00 0.00 0.00 40 1013.3
20260503224556 62 219 2.0 9.0 0.00 0.00 0.00 40 1013.2
20260503224056 62 208 1.0 5.0 0.00 0.00 0.00 40 1013.3
20260503223556 62 224 1.0 6.0 0.00 0.00 0.00 41 1013.2
20260503223056 62 138 2.0 6.0 0.00 0.00 0.00 41 1013.3
20260503222556 62 160 2.0 9.0 0.00 0.00 0.00 40 1013.3
20260503222056 62 144 1.0 12.0 0.00 0.00 0.00 42 1013.4
20260503221556 62 228 2.0 5.0 0.00 0.00 0.00 41 1013.4
20260503221056 62 175 2.0 8.0 0.00 0.00 0.00 41 1013.2
20260503220556 62 196 3.0 7.0 0.00 0.00 0.00 41 1013.4
20260503220056 62 184 3.0 7.0 0.00 0.00 0.00 40 1013.4
20260503215556 62 205 3.0 7.0 0.00 0.00 0.00 40 1013.3
20260503215056 62 212 3.0 7.0 0.00 0.00 0.00 40 1013.4
20260503214556 62 211 3.0 8.0 0.00 0.00 0.00 41 1013.5
20260503214056 62 157 3.0 6.0 0.00 0.00 0.00 42 1013.4
20260503213556 62 150 3.0 7.0 0.00 0.00 0.00 41 1013.7
20260503213056 61 187 2.0 9.0 0.00 0.00 0.00 41 1014.0
20260503212556 61 144 2.0 9.0 0.00 0.00 0.00 39 1014.0
20260503212056 61 162 2.0 8.0 0.00 0.00 0.00 39 1014.1
20260503211556 62 198 2.0 8.0 0.00 0.00 0.00 40 1014.3
20260503211056 62 173 2.0 10.0 0.00 0.00 0.00 40 1014.2
20260503210556 62 169 2.0 9.0 0.00 0.00 0.00 39 1014.2
20260503210056 62 211 2.0 5.0 0.00 0.00 0.00 40 1014.5
20260503205556 62 194 2.0 10.0 0.00 0.00 0.00 40 1014.8
20260503205056 62 152 2.0 6.0 0.00 0.00 0.00 39 1014.8
20260503204557 62 215 2.0 8.0 0.00 0.00 0.00 39 1015.3
20260503204056 61 201 1.0 7.0 0.00 0.00 0.00 40 1015.4
20260503203556 61 200 1.0 7.0 0.00 0.00 0.00 39 1015.5
20260503203056 61 180 1.0 3.0 0.00 0.00 0.00 39 1015.7
20260503202556 61 236 3.0 4.0 0.00 0.00 0.00 38 1015.9
20260503202056 62 260 2.0 7.0 0.00 0.00 0.00 37 1016.1
20260503201556 62 241 2.0 5.0 0.00 0.00 0.00 38 1016.0
20260503201056 62 195 2.0 9.0 0.00 0.00 0.00 37 1015.8
20260503200556 62 263 3.0 6.0 0.00 0.00 0.00 37 1015.7
20260503200056 62 208 3.0 6.0 0.00 0.00 0.00 37 1015.7
20260503195556 63 238 2.0 7.0 0.00 0.00 0.00 37 1015.7
20260503195056 63 215 2.0 7.0 0.00 0.00 0.00 36 1015.8
20260503194556 62 234 2.0 6.0 0.00 0.00 0.00 38 1015.9
20260503194056 63 208 3.0 6.0 0.00 0.00 0.00 39 1015.8
20260503193556 63 184 3.0 13.0 0.00 0.00 0.00 36 1016.1
20260503193056 63 146 2.0 6.0 0.00 0.00 0.00 38 1016.2
20260503192556 62 144 3.0 8.0 0.00 0.00 0.00 38 1016.3
20260503192056 62 287 2.0 7.0 0.00 0.00 0.00 36 1016.5
20260503191556 63 231 2.0 7.0 0.00 0.00 0.00 37 1016.3
20260503191056 62 213 2.0 7.0 0.00 0.00 0.00 37 1016.4
20260503190556 62 205 3.0 9.0 0.00 0.00 0.00 39 1016.5
20260503190056 62 203 3.0 9.0 0.00 0.00 0.00 37 1016.6
20260503185556 62 140 4.0 16.0 0.00 0.00 0.00 36 1016.8
20260503185056 62 243 3.0 15.0 0.00 0.00 0.00 37 1017.0
20260503184556 62 174 2.0 11.0 0.00 0.00 0.00 42 1017.1
20260503184056 61 251 3.0 6.0 0.00 0.00 0.00 38 1017.0
20260503183556 62 202 2.0 5.0 0.00 0.00 0.00 36 1017.2
20260503183056 62 186 3.0 4.0 0.00 0.00 0.00 38 1017.3
20260503182556 61 141 4.0 12.0 0.00 0.00 0.00 37 1017.5
20260503182057 61 211 2.0 11.0 0.00 0.00 0.00 37 1017.7
20260503181557 61 154 3.0 11.0 0.00 0.00 0.00 38 1017.7
20260503181056 61 215 3.0 8.0 0.00 0.00 0.00 38 1017.9
20260503180557 60 168 3.0 6.0 0.00 0.00 0.00 37 1017.8
20260503180057 60 250 3.0 5.0 0.00 0.00 0.00 40 1018.1
20260503175557 60 236 3.0 5.0 0.00 0.00 0.00 41 1018.3
20260503175057 60 213 2.0 5.0 0.00 0.00 0.00 37 1018.3
20260503174557 60 226 2.0 6.0 0.00 0.00 0.00 37 1018.4
20260503174057 60 213 2.0 5.0 0.00 0.00 0.00 37 1018.6
20260503173557 60 150 2.0 7.0 0.00 0.00 0.00 38 1018.6
20260503173057 60 204 2.0 6.0 0.00 0.00 0.00 38 1018.8
20260503172557 60 234 2.0 4.0 0.00 0.00 0.00 38 1018.6
20260503172057 60 206 2.0 6.0 0.00 0.00 0.00 36 1018.7
20260503171557 60 151 1.0 9.0 0.00 0.00 0.00 42 1018.7
20260503171057 60 188 2.0 3.0 0.00 0.00 0.00 40 1018.7
20260503170557 59 140 2.0 3.0 0.00 0.00 0.00 39 1018.8
20260503150557 54 257 1.0 7.0 0.00 0.00 0.00 41 1020.3
20260503131057 47 200 1.0 4.0 0.00 0.00 0.00 48 1020.6
20260503130557 47 153 1.0 3.0 0.00 0.00 0.00 50 1020.6
20260503110557 41 226 0.0 0.0 0.00 0.00 0.00 54 1019.9
20260503081558 43 227 0.0 0.0 0.00 0.00 0.00 51 1019.6
20260503081058 43 227 0.0 0.0 0.00 0.00 0.00 52 1019.7
20260503080558 43 227 0.0 0.0 0.00 0.00 0.00 51 1019.6
20260503072558 44 227 0.0 0.0 0.00 0.00 0.00 49 1019.6
20260503072058 44 227 0.0 0.0 0.00 0.00 0.00 49 1019.5
20260503071558 44 227 0.0 0.0 0.00 0.00 0.00 48 1019.6
20260503071058 44 227 0.0 0.0 0.00 0.00 0.00 47 1019.7
20260503070558 44 227 0.0 0.0 0.00 0.00 0.00 47 1019.7
20260503055058 45 227 0.0 0.0 0.00 0.00 0.00 43 1020.1
20260503054558 45 227 0.0 0.0 0.00 0.00 0.00 44 1020.1
20260503054058 45 227 0.0 0.0 0.00 0.00 0.00 44 1020.1
20260503053558 44 227 0.0 0.0 0.00 0.00 0.00 46 1020.2
20260503053058 44 227 0.0 0.0 0.00 0.00 0.00 47 1020.2
20260503052558 44 227 0.0 0.0 0.00 0.00 0.00 47 1020.2
20260503052058 44 227 0.0 0.0 0.00 0.00 0.00 48 1020.2
20260503051558 44 227 0.0 0.0 0.00 0.00 0.00 48 1020.2
20260503051058 43 227 0.0 0.0 0.00 0.00 0.00 49 1020.2
20260503050558 43 227 0.0 0.0 0.00 0.00 0.00 49 1020.2
20260503050058 43 227 0.0 0.0 0.00 0.00 0.00 48 1020.2
20260503045558 43 227 0.0 0.0 0.00 0.00 0.00 48 1020.2
20260503045058 43 227 0.0 0.0 0.00 0.00 0.00 48 1020.2
20260503044558 43 227 0.0 0.0 0.00 0.00 0.00 48 1020.2
20260503044058 43 227 0.0 0.0 0.00 0.00 0.00 47 1020.2
20260503043558 43 227 0.0 0.0 0.00 0.00 0.00 47 1020.2
20260503043058 44 227 0.0 0.0 0.00 0.00 0.00 47 1020.1
20260503042558 44 227 0.0 0.0 0.00 0.00 0.00 47 1020.2
20260503042058 44 227 0.0 0.0 0.00 0.00 0.00 47 1020.1
20260503041558 44 227 0.0 0.0 0.00 0.00 0.00 47 1020.1
20260503041058 44 227 0.0 0.0 0.00 0.00 0.00 47 1020.1
20260503040558 44 227 0.0 0.0 0.00 0.00 0.00 47 1020.1
20260503040058 44 227 0.0 0.0 0.00 0.00 0.00 47 1020.1
20260503035558 44 227 0.0 0.0 0.00 0.00 0.00 47 1020.1
20260503035058 44 227 0.0 0.0 0.00 0.00 0.00 52 1020.1
20260503034558 44 227 0.0 0.0 0.00 0.00 0.00 52 1020.1
20260503034058 44 227 0.0 0.0 0.00 0.00 0.00 46 1020.0
20260503033558 44 227 0.0 0.0 0.00 0.00 0.00 46 1020.1
20260503033058 45 227 0.0 0.0 0.00 0.00 0.00 46 1020.1
20260503032558 45 227 0.0 0.0 0.00 0.00 0.00 47 1020.1
20260503032058 45 227 0.0 0.0 0.00 0.00 0.00 46 1020.0
20260503031558 45 227 0.0 0.0 0.00 0.00 0.00 46 1020.1
20260503031058 45 227 0.0 0.0 0.00 0.00 0.00 47 1020.2
20260503030558 44 227 0.0 0.0 0.00 0.00 0.00 47 1020.2
20260503030058 44 227 0.0 0.0 0.00 0.00 0.00 48 1020.2
20260503025558 44 227 0.0 0.0 0.00 0.00 0.00 49 1020.2
20260503025058 44 227 0.0 0.0 0.00 0.00 0.00 49 1020.2
20260503024558 44 227 0.0 0.0 0.00 0.00 0.00 50 1020.2
20260503024058 44 227 0.0 0.0 0.00 0.00 0.00 53 1020.0
20260503023558 44 227 0.0 0.0 0.00 0.00 0.00 53 1020.0
20260503023058 44 227 0.0 0.0 0.00 0.00 0.00 53 1020.0
20260503022558 44 227 0.0 0.0 0.00 0.00 0.00 59 1020.0
20260503022058 44 227 0.0 0.0 0.00 0.00 0.00 59 1020.0
20260503021558 44 227 0.0 0.0 0.00 0.00 0.00 61 1019.9
20260503021058 44 227 0.0 0.0 0.00 0.00 0.00 55 1019.9
20260503020558 44 227 0.0 0.0 0.00 0.00 0.00 57 1019.9
20260503020058 45 227 0.0 0.0 0.00 0.00 0.00 53 1019.9
20260503015558 45 227 0.0 0.0 0.00 0.00 0.00 51 1019.9
20260503015058 45 227 0.0 0.0 0.00 0.00 0.00 57 1019.7
20260503014558 45 227 0.0 0.0 0.00 0.00 0.00 51 1019.6
20260503014058 45 227 0.0 0.0 0.00 0.00 0.00 57 1019.6
20260503013558 45 227 0.0 0.0 0.00 0.00 0.00 56 1019.5
20260503013058 46 227 0.0 0.0 0.00 0.00 0.00 53 1019.5
20260503012558 46 227 0.0 0.0 0.00 0.00 0.00 51 1019.4